Tracking 19909 objects as of 21-Oct-2019
HD Live streaming from Space Station
objects crossing your sky now

SENTINEL 1A DEB


SENTINEL 1A DEB is no longer on orbit


NORAD ID: 43417
Int'l Code: 2014-016J
Perigee: N/A
Apogee: N/A
Inclination: N/A
Period: N/A
Semi major axis: N/A
RCS: N/A
Launch date: April 3, 2014
Source: European Space Agency (ESA)
Launch site: FRENCH GUIANA (FRGUI)
Decay date: 2018-10-19

Note: This is SATELLITE DEBRIS
aabbcc
Your satellite tracking list
Your tracking list is empty




NASA's NSSDC Master Catalog

Two Line Element Set (TLE):
1 43417U 14016J   18181.26231813  .00162117  00000-0  79861-2 0  9997
2 43417  98.2131 207.6379 0025916 105.4479 254.9617 15.16929933 98810
Source of the keplerian elements: AFSPC